Погода в Исити

Погода в Исити : погода сейчас, прогноз погоды и архив. Всё, что Вы хотите узнать о погоде в Исити!

Хотите узнать прогноз погоды в Исити? Тогда Вам сюда: Погода в Исити

Поиск расширенной информации на нашем сайте:

Другие новости

Новости СМИ2

Главная страница сайта

Новости сайта

02.10.2013

Напоминаем, что на нашем новом сайте вы можете получить высокодетализированные прогнозы погоды по пунктам России, СНГ и мира (включающие важные для авиации метеовеличины, такие как направление и скорость ветра, видимость, явления погоды, количество и форма облачности, нижняя и верхняя граница облачности), а также ознакомиться с разнообразными материалами по авиационной метеорологии и подборкой полезных ссылок на эту тему.

Сайт Метеоцентр.Азия посвящён разработке технологий оптимизации авиаметеорологического обслуживания, включая проектирование и перспективное создание нескольких автоматизированных авиаметеорологических систем:
- система выпуска высокодетальных прогностических карт явлений погоды для нижнего воздушного пространства по России и ближнему зарубежью;
- система верификации прогнозов TAF (выпускаемых синоптиками официальных АМСГ РФ и ближнего зарубежья) и AUTOTAF (выпускаемых сайтом Метеоцентр.Азия) - выявление ошибок, онлайн-сопоставление с фактической погодой METAR, автоматическое внесение коррективов в прогнозы при резком отклонении фактической погоды от прогноза, подсчёт оправдываемости прогнозов по элементам и в целом;
- система обработки, анализа и отображения авиаметеорологической информации для применения провайдерами метеорологической информации.

Рекомендуем: Летняя и зимняя спецодежда оптом противогазы и озк москва.

Погода в Исити - сегодня

Время (UTC), дата Ветер
(°,м/с) 
Видим.   Явления Облачность Т
(°С)
Тd
(°С)
f(%) Тe
(°С)
Pmin
(гПа)
dP
(гПа)
Po
(мм)
O2
(г/м3)
Тmin Tmax R s Состояние
почвы
21 19.03.17 310 (СЗ) 20000 м  {снег}  6/0 средняя 
[Ac As]
-10.1 -12.1 85 -13  1029.7  0.2  759  319           
00 20.03.17 270 (З) 20000 м  слаб. снег  10/0 средняя, верхняя 
[Ac As|Cs]
-10.1 -11.4 90 -12  1029.6  759  319  -12.5    0.4  34  равномерный
сухой снег
100% 
03 20.03.17 270 (З) 20000 м  слаб. снег  10/0 средняя, верхняя 
[Ac As|Cs]
-5.1 -6.5 90 -8  1029.3  -0.1  759  312           
06 20.03.17 270 (З) 20000 м  слаб. ливневой снег  10/10 1000 м кучево-дожд. 
[Cb calv]
-2.3 -4.2 87 -5  1027.5  -1.5  758  309           
09 20.03.17 270 (З) 20000 м  слаб. ливневой снег  9/8 600 м кучево-дожд., верхняя 
[Cb calv|Ci sp]
-2.2 -3.4 91 -3  1027.4  -0.1  758  308           
12 20.03.17 300 (СЗ) 20000 м  {ливн. осадки}  10/3 1000 м средняя 
[Sc|Ac As]
-4.8 -6.5 88 -4  1027.7  0.1  758  312    -2  0.4     
15 20.03.17 290 (З) 20000 м    10/3 1000 м средняя 
[Sc|Ac As]
-6.8 -8 91 -6  1027.1  -0.7  758  314           
18 20.03.17 270 (З) 20000 м    10/0 средняя 
[Ac As]
-4.8 -6.5 88 -6  1025.7  -1.3  757  311           
21 20.03.17 220 (ЮЗ) 82  20000 м    9/4 1000 м средняя 
[Sc|Ac trans]
-5.8 -7.3 89 -21  1025.4  -0.4  756  312           
00 21.03.17 270 (З) 20000 м    4/3 1000 м средняя 
[Sc|Ac trans]
-5.5 -7.3 87 -8  1025.6  0.2  756  312  -7.7      35  равномерный
сухой снег
100% 
03 21.03.17 270 (З) 20000 м    4/1 1000 м кучево-дожд., средняя 
[Cb calv|Ac trans]
-2.2 -6.5 72 -4  1024  -1.3  755  308           
06 21.03.17 320 (СЗ) 20000 м    3/3 1000 м средняя 
[Sc diur, vesp|Ac lent]
+4 -8.6 39 +3  1021.6  -2  754  300           
09 21.03.17 280 (З) 20000 м    4/4 1000 м 
[Sc diur, vesp]
+3.3 -8.6 41 +4  1021.4  -0.2  754  301           
12 21.03.17 300 (СЗ) 20000 м    8/8 1000 м 
[Sc]
-2 -7.8 64 -1  1023.1  1.3  755  307    +4.7       
15 21.03.17 тихо ()   20000 м    10/10 1000 м 
[Sc]
-1.6 -7.2 66 -2  1023.1  755  307           
18 21.03.17 280 (З) 20000 м    10/10 1000 м 
[Sc]
-2.2 -8.1 64 -2  1023.2  0.1  755  307           
21 21.03.17 290 (З) 20000 м    10/10 1000 м 
[Sc]
-3.2 -7.1 74 -3  1023.3  755  309           
00 22.03.17 270 (З) 20000 м    6/0 средняя 
[Ac As]
-2.7 -7.2 71 -4  1023.5  0.3  755  308  -3.6      33  равномерный
сухой снег
100% 
03 22.03.17 270 (З) 20000 м    9/6 600 м кучево-дожд., средняя 
[Cb calv|Ac trans]
-1.1 -6.5 67 -3  1023.8  0.4  755  306           
06 22.03.17 260 (З) 20000 м    9/8 600 м кучево-дожд., средняя, верхняя 
[Cb calv|Ac cast|Ci sp]
+0 -6.4 62 -2  1023.7  755  305           
09 22.03.17 270 (З) 20000 м    9/6 1000 м кучево-дожд., средняя 
[Cb calv|Ac und]
+0 -6.8 60 -1  1024.3  0.5  756  305           
12 22.03.17 270 (З) 20000 м    9/6 1000 м кучево-дожд., средняя 
[Cb calv|Ac As]
-1.6 -6.8 68 -3  1025.8  1.4  757  307    +0.3       
15 22.03.17 280 (З) 20000 м    10/5 1000 м средняя 
[Sc|Ac As]
-2.7 -6 78 -4  1025.9  757  309           
18 22.03.17 280 (З) 20000 м    3/0 средняя 
[Ac lent]
-4.4 -7.5 79 -6  1025.9  -0.1  757  311           
21 22.03.17 270 (З) 20000 м  слаб. снег  10/10 1000 м 
[Sc]
-4.3 -5.9 89 -7  1025.9  757  310           
Время (UTC), дата Ветер
(°,м/с) 
Видим.   Явления Облачность Т
(°С)
Тd
(°С)
f(%) Тe
(°С)
Pmin
(гПа)
dP
(гПа)
Po
(мм)
O2
(г/м3)
Тmin Tmax R s Состояние
почвы

Для получения пояснительной информации подведите курсор к названию столбца.

ПОГОДА в Исити - архив

Всё, что Вы хотите узнать о погоде в Исити - удобно и подробно!

Выберите нужную дату (начиная с 1 января 2015* года) и нажмите кнопку "Найти".
Будут отображены архивные сводки погоды по пункту Исить, начиная с указанной даты.


Отображать данные в формате CSV (для использования в таблицах Excel)


Внимание! Наш архив погоды предназначен исключительно для личного некоммерческого использования в познавательных целях. Если Вам необходимы официальные справки о состоянии погоды (для производственных, юридических, коммерческих и т.п. целей), обращайтесь в органы Росгидромета.

*Примечание: данная дата относится к архиву по метеостанциям СССР (Россия, СНГ, Балтия).
Архив по метеостанциям Зарубежной Европы и Азии (кроме Китая) хранится 10 дней, по другим регионам земного шара (Китай, Африка, Америка, Австралия, Океания) - 1 день.

Исить - район местоположения метеостанции


Название, широта, долгота, высота метеостанции:
Исить 60.8°ш. 125.3°д. 118 м над ур. моря [Российская Федерация]

Дополнительная информация

В oтличие oт бoльшинства пoгoдных сайтoв мы публикуем пoдрoбную метеoинфoрмацию в детальнoм прoфессиoнальнoм фoрмате.

Характеристики температуры и влажнoсти вoздуха измеряются на высoте 2 м в тени вдали oт зданий и деревьев.
Скoрoсть ветра измеряется на высoте 10 м (на урoвне рoста челoвека скoрoсть ветра ниже в 1.5-2 раза). Если метеoстанция нахoдится в гoрoде или в лесу, тo скoрoсть ветра занижена на 2-4 м/с пo сравнению с oткрытым местoм. Скoрoсть ветра над акватoриями крупных рек и oзёр, а также на вершинах хoлмoв на 2-5 м/с выше, чем в oбычных услoвиях.
Атмoсфернoе давление в разных тoчках местнoсти мoжет значительнo oтличаться oт давления на метеoстанции, в зависимoсти oт услoвий рельефа (при пoдъёме на 10 м давление пoнижается примернo на 1 мм рт.ст.).